Flight Track Log - Related Links

Times and Time Zones

All times are in EDT time to prevent confusion due to time zone crossing. See the SWA104 flight status page for this flight to view local times or setup timezone preferences in your user account.

Time Position Orientation Groundspeed Altitude Reporting Facility
EDT Latitude Longitude Course Direction KTS MPH feet Rate Location/Type
Fri 08:42:18 PM 42.9167 -71.4333 216° Southwest 144 166 1,300  Level KA90
Fri 08:42:54 PM 42.9000 -71.4500 216° Southwest 178 205 2,700 2,939 Climbing KA90
Fri 08:43:56 PM 42.9114 -71.5075 285° West 161 185 6,100 3,197 Climbing Boston Center
Fri 08:44:56 PM 42.9442 -71.4531 51° Northeast 124 143 9,200 3,550 Climbing Boston Center
Fri 08:45:56 PM 42.9789 -71.3561 64° Northeast 244 281 13,200 4,100 Climbing Boston Center
Fri 08:46:56 PM 43.0172 -71.2475 64° Northeast 298 343 17,400 3,500 Climbing Boston Center
Fri 08:47:56 PM 43.0536 -71.1417 65° Northeast 323 372 20,200 3,200 Climbing Boston Center
Fri 08:48:56 PM 43.0792 -71.0131 75° East 338 389 23,800 3,250 Climbing Boston Center
Fri 08:49:56 PM 43.0028 -70.8986 132° Southeast 319 367 26,700 2,100 Climbing Boston Center
Fri 08:50:56 PM 42.8761 -70.9328 191° South 311 358 28,000 1,550 Climbing Boston Center
Fri 08:51:56 PM 42.7542 -71.0122 206° Southwest 401 461 29,800 2,050 Climbing Boston Center
Fri 08:52:56 PM 42.6703 -71.1608 233° Southwest 424 488 32,100 2,050 Climbing Boston Center
Fri 08:53:56 PM 42.5886 -71.3092 233° Southwest 459 528 33,900 950 Climbing Boston Center
Fri 08:54:56 PM 42.5044 -71.4600 233° Southwest 491 565 34,000 50 Climbing Boston Center
Fri 08:55:56 PM 42.4203 -71.6075 232° Southwest 502 578 34,000  Level Boston Center
Fri 08:56:56 PM 42.3358 -71.7519 232° Southwest 502 578 34,000  Level Boston Center
Fri 08:57:56 PM 42.2636 -71.9072 238° Southwest 502 578 34,000  Level Boston Center
Fri 08:59:08 PM 42.1728 -72.0844 235° Southwest 491 565 34,000  Level Boston Center
Fri 09:00:08 PM 42.0875 -72.2303 232° Southwest 491 565 34,000  Level Boston Center
Fri 09:01:08 PM 42.0044 -72.3731 232° Southwest 496 571 34,000  Level Boston Center
Fri 09:02:08 PM 41.9128 -72.5267 231° Southwest 496 571 34,000  Level Boston Center
Fri 09:03:20 PM 41.8333 -72.6631 232° Southwest 491 565 34,000  Level Boston Center
Fri 09:04:20 PM 41.7308 -72.8350 231° Southwest 488 562 34,000  Level Boston Center
Fri 09:05:20 PM 41.6467 -72.9733 231° Southwest 488 562 34,000  Level Boston Center
Fri 09:06:20 PM 41.5647 -73.1142 232° Southwest 488 562 34,000  Level Boston Center
Fri 09:07:20 PM 41.4953 -73.2328 232° Southwest 480 552 34,000  Level Boston Center
Fri 09:09:11 PM 41.3428 -73.4850 231° Southwest 481 554 34,000  Level New York Center
Fri 09:10:10 PM 41.2606 -73.6194 231° Southwest 481 554 34,000  Level New York Center
Fri 09:11:10 PM 41.1778 -73.7619 232° Southwest 481 554 34,000  Level New York Center
Fri 09:12:10 PM 41.0953 -73.8961 231° Southwest 482 555 34,000  Level New York Center
Fri 09:13:11 PM 41.0122 -74.0381 232° Southwest 482 555 34,000  Level New York Center
Fri 09:14:11 PM 40.9206 -74.1872 231° Southwest 482 555 34,000 -356 Level New York Center
Fri 09:15:09 PM 40.8375 -74.3231 231° Southwest 482 555 33,300 -1,916 Descending New York Center
Fri 09:16:10 PM 40.7583 -74.4586 232° Southwest 482 555 30,200 -2,672 Descending New York Center
Fri 09:17:08 PM 40.6792 -74.5856 231° Southwest 472 543 28,000 -1,361 Descending New York Center
Fri 09:18:09 PM 40.6022 -74.7097 231° Southwest 458 527 27,500 -738 Descending New York Center
Fri 09:19:10 PM 40.5208 -74.8333 229° Southwest 453 521 26,500 -984 Descending New York Center
Fri 09:20:11 PM 40.4397 -74.9458 227° Southwest 447 514 25,500 -1,109 Descending New York Center
Fri 09:21:09 PM 40.3586 -75.0581 227° Southwest 435 501 24,300 -1,412 Descending New York Center
Fri 09:22:10 PM 40.2817 -75.1703 228° Southwest 430 495 22,700 -1,525 Descending New York Center
Fri 09:23:11 PM 40.2044 -75.2797 227° Southwest 425 489 21,200 -1,475 Descending New York Center
Fri 09:24:08 PM 40.1275 -75.3858 227° Southwest 425 489 19,800 -1,424 Descending New York Center
Fri 09:25:09 PM 40.0483 -75.4892 225° Southwest 420 483 18,400 -885 Descending New York Center
Fri 09:26:10 PM 39.9819 -75.5822 227° Southwest 405 466 18,000 -252 Descending New York Center
Fri 09:27:08 PM 39.9044 -75.6958 228° Southwest 399 459 17,900 -504 Descending New York Center
Fri 09:28:09 PM 39.8500 -75.8003 236° Southwest 393 452 17,000 -1,608 Descending New York Center
Fri 09:30:22 PM 39.7167 -76.0500 235° Southwest 350 403 12,700 -1,772 Descending Potomac TRACON
Fri 09:31:22 PM 39.6667 -76.1500 237° Southwest 328 377 11,300 -1,368 Descending Potomac TRACON
Fri 09:32:16 PM 39.6333 -76.2333 243° Southwest 305 351 10,100 -1,357 Descending Potomac TRACON
Fri 09:33:17 PM 39.5833 -76.3333 237° Southwest 297 342 8,700 -1,587 Descending Potomac TRACON
Fri 09:34:17 PM 39.5500 -76.4167 243° Southwest 292 336 6,900 -1,500 Descending Potomac TRACON
Fri 09:35:17 PM 39.5167 -76.5167 247° West 286 329 5,700 -1,100 Descending Potomac TRACON
Fri 09:36:17 PM 39.4667 -76.6000 232° Southwest 281 323 4,700 -850 Descending Potomac TRACON
Fri 09:37:17 PM 39.4333 -76.6833 243° Southwest 280 322 4,000 -950 Descending Potomac TRACON
Fri 09:38:17 PM 39.3667 -76.7500 218° Southwest 272 313 2,800 -1,200 Descending Potomac TRACON

Login

Don't have an account? Register now (free) for customized features, flight alerts, and more!